Location: Heisede
(52.2582°N, 9.8523°E)
Time: 14:52:31
(UTC+00:00)

Cosmos 1992 Rocket - Visible Passes

Search period start: 19 April 2026 00:00
Search period end: 29 April 2026 00:00
Orbit: 754 x 761 km, 74.0° (Epoch: 19 April)

Date Brightness Start Highest point End Pass type
(mag) Time Alt. Az. Time Alt. Az. Time Alt. Az.
19 Apr 5.0 00:23:51 32° ESE 00:24:32 33° ESE 00:29:10 10° NE visible
19 Apr 4.5 02:03:53 28° WSW 02:06:13 46° WNW 02:11:17 10° NNE visible
19 Apr 5.7 23:44:16 20° ESE 23:44:34 20° E 23:48:19 10° NE visible
20 Apr 4.0 01:24:17 46° SW 01:25:50 73° WNW 01:31:05 10° NNE visible
20 Apr 5.9 03:05:05 10° W 03:08:38 18° NW 03:12:12 10° N visible
20 Apr 6.3 23:04:38 12° E 23:04:44 12° E 23:06:36 10° ENE visible
21 Apr 4.0 00:44:40 57° SSE 00:45:34 70° ESE 00:50:47 10° NNE visible
21 Apr 5.5 02:24:42 15° W 02:27:56 25° NW 02:32:16 10° N visible
22 Apr 4.6 00:05:01 42° ESE 00:05:26 42° ESE 00:10:21 10° NE visible
22 Apr 4.9 01:45:03 25° WSW 01:47:21 37° NW 01:52:13 10° NNE visible
22 Apr 6.3 03:29:12 10° NW 03:30:48 11° NNW 03:32:25 10° NNW visible
22 Apr 5.3 23:25:21 26° E 23:25:24 26° E 23:29:41 10° NE visible
23 Apr 4.3 01:05:23 42° WSW 01:06:54 58° WNW 01:12:04 10° NNE visible
23 Apr 6.1 02:46:52 10° WNW 02:49:55 15° NW 02:52:58 10° N visible
23 Apr 5.9 22:45:40 16° E 22:45:40 16° E 22:48:33 10° ENE visible
24 Apr 3.9 00:25:41 63° SSW 00:26:34 89° ESE 00:31:49 10° NNE visible
24 Apr 5.8 02:05:42 12° W 02:09:09 21° NW 02:13:07 10° N visible
24 Apr 4.2 23:45:58 53° SE 23:46:22 55° ESE 23:51:28 10° NNE visible
25 Apr 5.3 01:25:59 21° W 01:28:30 31° NW 01:33:08 10° NNE visible
25 Apr 4.9 23:06:14 33° ESE 23:06:16 33° ESE 23:10:56 10° NE visible
26 Apr 4.6 00:46:15 34° WSW 00:47:59 46° WNW 00:53:02 10° NNE visible
26 Apr 6.3 02:28:48 10° WNW 02:31:13 13° NNW 02:33:38 10° N visible
26 Apr 5.6 22:26:28 20° E 22:26:28 20° E 22:30:05 10° NE visible
27 Apr 4.0 00:06:29 54° SW 00:07:36 73° WNW 00:12:50 10° NNE visible
27 Apr 6.1 01:46:51 10° W 01:50:24 18° NW 01:53:56 10° N visible
27 Apr 6.1 21:46:40 12° E 21:46:40 12° E 21:48:23 10° ENE visible
27 Apr 3.9 23:26:41 63° SSE 23:27:19 71° ESE 23:32:32 10° NNE visible
28 Apr 5.6 01:06:42 16° W 01:09:41 25° NW 01:14:01 10° N visible
28 Apr 4.5 22:46:52 42° ESE 22:47:11 43° ESE 22:52:06 10° NE visible
